Radiation Dose at Monitoring Post of Fukushima Daini Nuclear Power Station
Date,Time,MP-1(microSv/h),MP-2(microSv/h),MP-3(microSv/h),MP-4(microSv/h),MP-5(microSv/h),MP-6(microSv/h),MP-7(microSv/h),Wind Direction,Wind Velocity(m/s),Rain
2021/09/16,00:00,0.161,0.147,0.233,0.225,0.231,0.126,0.079,north-northwest,7.5,Yes
2021/09/16,00:10,0.163,0.146,0.234,0.224,0.232,0.125,0.079,north-northwest,6.2,Yes
2021/09/16,00:20,0.160,0.148,0.233,0.226,0.229,0.125,0.079,north-northwest,6.2,Yes
2021/09/16,00:30,0.161,0.147,0.233,0.224,0.232,0.125,0.079,north-northwest,6.6,Yes
2021/09/16,00:40,0.161,0.147,0.232,0.227,0.230,0.125,0.079,north-northwest,6.6,Yes
2021/09/16,00:50,0.161,0.148,0.235,0.225,0.231,0.125,0.080,north-northwest,7.2,Yes
2021/09/16,01:00,0.162,0.146,0.232,0.226,0.230,0.124,0.079,north-northwest,6.6,Yes
2021/09/16,01:10,0.160,0.147,0.234,0.226,0.230,0.124,0.079,north,5.4,Yes
2021/09/16,01:20,0.162,0.146,0.233,0.224,0.231,0.125,0.079,north,5.5,Yes
2021/09/16,01:30,0.161,0.147,0.234,0.227,0.229,0.124,0.079,north-northeast,6.6,Yes
2021/09/16,01:40,0.161,0.146,0.233,0.224,0.231,0.124,0.079,north-northeast,7.5,Yes
2021/09/16,01:50,0.162,0.147,0.233,0.226,0.229,0.125,0.079,north-northeast,8.1,Yes
2021/09/16,02:00,0.160,0.147,0.233,0.225,0.231,0.124,0.080,northeast,7.8,Yes
2021/09/16,02:10,0.162,0.147,0.233,0.224,0.231,0.126,0.079,east-northeast,6.3,Yes
2021/09/16,02:20,0.161,0.148,0.234,0.225,0.228,0.124,0.079,east-northeast,7.3,Yes
2021/09/16,02:30,0.162,0.146,0.232,0.224,0.232,0.124,0.079,east-northeast,5.6,Yes
2021/09/16,02:40,0.161,0.147,0.235,0.227,0.229,0.125,0.079,east-northeast,5.7,Yes
2021/09/16,02:50,0.161,0.147,0.231,0.224,0.231,0.124,0.079,northeast,5.0,Yes
2021/09/16,03:00,0.162,0.148,0.233,0.226,0.231,0.125,0.079,northeast,4.7,Yes
2021/09/16,03:10,0.160,0.147,0.232,0.224,0.229,0.125,0.079,northeast,4.6,Yes
2021/09/16,03:20,0.163,0.147,0.232,0.223,0.232,0.125,0.079,north-northeast,3.6,Yes
2021/09/16,03:30,0.161,0.147,0.234,0.227,0.229,0.125,0.079,north-northeast,3.6,Yes
2021/09/16,03:40,0.160,0.146,0.232,0.225,0.232,0.124,0.078,north-northeast,4.0,Yes
2021/09/16,03:50,0.161,0.147,0.234,0.225,0.231,0.124,0.078,north-northeast,3.8,Yes
2021/09/16,04:00,0.160,0.147,0.233,0.223,0.229,0.125,0.078,northeast,4.3,Yes
2021/09/16,04:10,0.163,0.148,0.234,0.226,0.232,0.124,0.079,north-northeast,2.6,Yes
2021/09/16,04:20,0.161,0.146,0.234,0.225,0.229,0.125,0.079,northeast,3.9,Yes
2021/09/16,04:30,0.161,0.147,0.233,0.224,0.230,0.125,0.078,northeast,4.6,Yes
2021/09/16,04:40,0.161,0.148,0.234,0.227,0.230,0.125,0.079,north-northeast,4.0,Yes
2021/09/16,04:50,0.161,0.147,0.232,0.225,0.228,0.125,0.081,north,5.7,Yes
2021/09/16,05:00,0.162,0.149,0.233,0.226,0.230,0.125,0.080,north,5.5,Yes
2021/09/16,05:10,0.160,0.147,0.230,0.221,0.228,0.126,0.080,north-northeast,5.1,Yes
2021/09/16,05:20,0.161,0.148,0.228,0.221,0.230,0.126,0.083,northeast,4.3,Yes
2021/09/16,05:30,0.161,0.148,0.227,0.221,0.229,0.129,0.085,northeast,5.4,Yes
2021/09/16,05:40,0.161,0.149,0.229,0.223,0.232,0.129,0.086,east-northeast,4.2,Yes
2021/09/16,05:50,0.159,0.149,0.228,0.223,0.232,0.128,0.086,east-northeast,6.5,Yes
2021/09/16,06:00,0.161,0.147,0.230,0.223,0.232,0.128,0.085,east-northeast,5.7,Yes
2021/09/16,06:10,0.160,0.146,0.227,0.222,0.231,0.125,0.084,east-northeast,6.0,Yes
2021/09/16,06:20,0.158,0.146,0.229,0.220,0.229,0.126,0.082,east-northeast,8.3,Yes
2021/09/16,06:30,0.159,0.145,0.225,0.221,0.230,0.124,0.082,east-northeast,7.7,Yes
2021/09/16,06:40,0.156,0.146,0.228,0.220,0.227,0.124,0.081,east-northeast,7.1,No
2021/09/16,06:50,0.157,0.143,0.225,0.220,0.229,0.123,0.080,east-northeast,6.3,No
2021/09/16,07:00,0.156,0.143,0.227,0.218,0.226,0.122,0.079,east-northeast,7.0,No
2021/09/16,07:10,0.157,0.143,0.224,0.218,0.228,0.122,0.079,east-northeast,7.3,No
2021/09/16,07:20,0.157,0.144,0.224,0.218,0.228,0.121,0.079,east-northeast,6.4,No
2021/09/16,07:30,0.157,0.144,0.223,0.217,0.224,0.121,0.078,east-northeast,6.0,No
2021/09/16,07:40,0.157,0.143,0.223,0.219,0.227,0.121,0.078,northeast,6.5,Yes
2021/09/16,07:50,0.155,0.143,0.226,0.216,0.225,0.121,0.078,east-northeast,4.9,Yes
2021/09/16,08:00,0.156,0.143,0.224,0.218,0.225,0.121,0.078,northeast,6.2,No
2021/09/16,08:10,0.157,0.142,0.225,0.217,0.227,0.121,0.078,northeast,6.0,No
2021/09/16,08:20,0.155,0.143,0.224,0.217,0.224,0.119,0.077,northeast,6.1,No
2021/09/16,08:30,0.157,0.142,0.223,0.219,0.226,0.121,0.077,northeast,6.9,No
2021/09/16,08:40,0.156,0.144,0.224,0.216,0.226,0.120,0.077,north-northeast,6.1,No
2021/09/16,08:50,0.155,0.141,0.224,0.216,0.224,0.119,0.077,northeast,6.3,No
2021/09/16,09:00,0.157,0.142,0.223,0.218,0.225,0.122,0.076,northeast,4.6,No
2021/09/16,09:10,0.157,0.144,0.226,0.216,0.226,0.120,0.077,northeast,7.6,No
2021/09/16,09:20,0.155,0.142,0.224,0.216,0.223,0.119,0.078,northeast,5.8,No
2021/09/16,09:30,0.157,0.143,0.224,0.218,0.225,0.120,0.077,northeast,6.0,No
2021/09/16,09:40,0.157,0.143,0.226,0.217,0.226,0.120,0.076,northeast,7.3,No
2021/09/16,09:50,0.155,0.143,0.224,0.216,0.224,0.120,0.077,northeast,5.2,No
2021/09/16,10:00,0.156,0.143,0.222,0.216,0.224,0.120,0.077,northeast,6.6,No
2021/09/16,10:10,0.157,0.144,0.226,0.219,0.227,0.120,0.076,northeast,6.1,No
2021/09/16,10:20,0.156,0.142,0.226,0.218,0.227,0.120,0.077,northeast,6.7,Yes
2021/09/16,10:30,0.158,0.143,0.224,0.216,0.224,0.120,0.077,northeast,5.9,No
2021/09/16,10:40,0.157,0.144,0.226,0.219,0.226,0.121,0.078,east-northeast,7.4,No
2021/09/16,10:50,0.155,0.142,0.226,0.218,0.228,0.120,0.077,northeast,7.3,No
2021/09/16,11:00,0.158,0.143,0.223,0.217,0.226,0.120,0.076,east-northeast,7.1,No
2021/09/16,11:10,0.158,0.143,0.226,0.217,0.223,0.120,0.076,northeast,7.5,No
2021/09/16,11:20,0.155,0.142,0.225,0.219,0.227,0.122,0.078,east-northeast,7.7,No
2021/09/16,11:30,0.157,0.142,0.224,0.218,0.226,0.120,0.078,northeast,7.6,No
2021/09/16,11:40,0.158,0.143,0.227,0.217,0.224,0.121,0.077,east-northeast,6.2,No
2021/09/16,11:50,0.155,0.143,0.226,0.220,0.225,0.120,0.077,northeast,7.7,No
2021/09/16,12:00,0.159,0.143,0.224,0.218,0.228,0.122,0.077,northeast,6.1,No
2021/09/16,12:10,0.157,0.144,0.225,0.217,0.227,0.121,0.078,east-northeast,7.1,No
2021/09/16,12:20,0.155,0.143,0.226,0.217,0.224,0.121,0.077,east-northeast,7.6,No
2021/09/16,12:30,0.157,0.142,0.224,0.220,0.228,0.122,0.078,east-northeast,5.8,No
2021/09/16,12:40,0.157,0.144,0.227,0.218,0.227,0.121,0.078,east-northeast,7.1,No
2021/09/16,12:50,0.156,0.143,0.227,0.217,0.225,0.121,0.077,east-northeast,5.5,No
2021/09/16,13:00,0.158,0.143,0.225,0.218,0.226,0.121,0.078,northeast,5.5,No
2021/09/16,13:10,0.157,0.144,0.226,0.220,0.228,0.121,0.078,northeast,4.0,No
2021/09/16,13:20,0.156,0.143,0.227,0.219,0.227,0.121,0.077,northeast,5.1,No
2021/09/16,13:30,0.159,0.143,0.225,0.218,0.225,0.121,0.077,east-northeast,5.2,No
2021/09/16,13:40,0.157,0.144,0.226,0.220,0.228,0.121,0.077,northeast,5.1,No
2021/09/16,13:50,0.157,0.143,0.226,0.219,0.227,0.120,0.077,east-northeast,5.6,No
2021/09/16,14:00,0.157,0.144,0.225,0.217,0.226,0.122,0.078,east-northeast,4.6,No
2021/09/16,14:10,0.157,0.143,0.227,0.221,0.228,0.122,0.078,east-northeast,4.8,No
2021/09/16,14:20,0.157,0.143,0.226,0.219,0.226,0.121,0.077,east-northeast,5.3,No
2021/09/16,14:30,0.159,0.145,0.225,0.217,0.225,0.121,0.078,east-northeast,4.6,No
2021/09/16,14:40,0.157,0.142,0.228,0.219,0.228,0.122,0.078,east-northeast,4.3,No
2021/09/16,14:50,0.157,0.143,0.227,0.219,0.228,0.122,0.077,east-northeast,4.9,No
2021/09/16,15:00,0.157,0.144,0.225,0.217,0.225,0.121,0.077,east-northeast,4.5,No
2021/09/16,15:10,0.156,0.143,0.228,0.221,0.228,0.122,0.077,east-northeast,4.6,No
2021/09/16,15:20,0.158,0.144,0.227,0.219,0.227,0.122,0.077,east-northeast,5.2,No
2021/09/16,15:30,0.157,0.144,0.226,0.217,0.225,0.121,0.078,east-northeast,4.1,No
2021/09/16,15:40,0.155,0.144,0.228,0.220,0.228,0.122,0.077,east-northeast,4.1,No
2021/09/16,15:50,0.159,0.144,0.225,0.218,0.227,0.122,0.077,east-northeast,4.2,No
2021/09/16,16:00,0.158,0.143,0.227,0.219,0.225,0.123,0.077,east-northeast,4.0,No
2021/09/16,16:10,0.159,0.144,0.227,0.220,0.228,0.123,0.078,east-northeast,4.4,No
2021/09/16,16:20,0.158,0.144,0.226,0.218,0.228,0.122,0.077,east-northeast,3.5,No
2021/09/16,16:30,0.157,0.145,0.227,0.220,0.227,0.122,0.078,east-northeast,2.1,No
2021/09/16,16:40,0.158,0.144,0.225,0.220,0.227,0.123,0.077,east,3.9,No
2021/09/16,16:50,0.157,0.144,0.227,0.218,0.226,0.122,0.078,east,3.8,No
2021/09/16,17:00,0.158,0.144,0.227,0.221,0.228,0.122,0.077,east,3.9,No
2021/09/16,17:10,0.158,0.143,0.226,0.220,0.228,0.123,0.077,east-northeast,3.7,No
2021/09/16,17:20,0.157,0.144,0.228,0.220,0.226,0.121,0.078,east-northeast,3.9,No
2021/09/16,17:30,0.159,0.144,0.226,0.220,0.229,0.122,0.077,east,3.7,No
2021/09/16,17:40,0.157,0.144,0.228,0.218,0.226,0.121,0.078,east,3.2,No
2021/09/16,17:50,0.158,0.144,0.226,0.221,0.228,0.122,0.078,east,4.0,No
2021/09/16,18:00,0.158,0.143,0.228,0.219,0.226,0.122,0.078,east,3.3,No
2021/09/16,18:10,0.156,0.145,0.227,0.221,0.226,0.122,0.078,east,3.7,No
2021/09/16,18:20,0.158,0.144,0.227,0.219,0.228,0.122,0.078,east,1.8,No
2021/09/16,18:30,0.157,0.144,0.227,0.220,0.226,0.121,0.078,east,2.7,No
2021/09/16,18:40,0.158,0.143,0.226,0.221,0.230,0.122,0.077,east,2.5,No
2021/09/16,18:50,0.158,0.144,0.227,0.219,0.226,0.122,0.078,east,2.2,No
2021/09/16,19:00,0.158,0.143,0.226,0.221,0.226,0.122,0.078,east,3.8,No
2021/09/16,19:10,0.159,0.144,0.227,0.218,0.227,0.123,0.078,east,2.6,No
2021/09/16,19:20,0.156,0.144,0.225,0.221,0.227,0.121,0.078,east,2.1,No
2021/09/16,19:30,0.158,0.144,0.227,0.221,0.228,0.123,0.078,east,2.0,No
2021/09/16,19:40,0.157,0.144,0.226,0.219,0.225,0.121,0.078,east,2.7,No
2021/09/16,19:50,0.157,0.144,0.228,0.220,0.228,0.122,0.077,east-northeast,2.6,No
2021/09/16,20:00,0.158,0.144,0.226,0.220,0.227,0.121,0.078,east,3.5,No
2021/09/16,20:10,0.157,0.144,0.227,0.221,0.226,0.122,0.077,east-northeast,2.9,No
2021/09/16,20:20,0.159,0.144,0.226,0.219,0.228,0.123,0.079,east,2.6,No
2021/09/16,20:30,0.157,0.143,0.228,0.221,0.226,0.122,0.078,east,3.3,No
2021/09/16,20:40,0.159,0.145,0.227,0.220,0.229,0.122,0.078,east,2.1,No
2021/09/16,20:50,0.157,0.145,0.228,0.221,0.227,0.122,0.078,east,2.8,No
2021/09/16,21:00,0.157,0.144,0.227,0.219,0.228,0.123,0.078,east-southeast,1.8,No
2021/09/16,21:10,0.158,0.144,0.228,0.221,0.227,0.122,0.078,east-southeast,1.9,No
2021/09/16,21:20,0.158,0.144,0.227,0.220,0.227,0.122,0.077,east-southeast,2.1,No
2021/09/16,21:30,0.159,0.144,0.228,0.221,0.226,0.122,0.077,east,1.6,No
2021/09/16,21:40,0.157,0.144,0.227,0.220,0.226,0.122,0.078,east,2.3,No
2021/09/16,21:50,0.158,0.143,0.229,0.220,0.228,0.123,0.078,east,1.9,No
2021/09/16,22:00,0.158,0.144,0.227,0.220,0.227,0.122,0.078,east,2.2,No
2021/09/16,22:10,0.159,0.144,0.227,0.220,0.227,0.123,0.078,east,2.2,No
2021/09/16,22:20,0.158,0.145,0.226,0.220,0.226,0.122,0.077,east,1.8,No
2021/09/16,22:30,0.158,0.144,0.229,0.220,0.228,0.122,0.078,east-northeast,1.0,No
2021/09/16,22:40,0.158,0.144,0.228,0.220,0.227,0.121,0.078,-,CALM,No
2021/09/16,22:50,0.158,0.144,0.228,0.220,0.228,0.122,0.078,-,CALM,No
2021/09/16,23:00,0.160,0.145,0.227,0.222,0.227,0.122,0.078,-,CALM,No
2021/09/16,23:10,0.157,0.145,0.228,0.220,0.228,0.122,0.078,-,CALM,No
2021/09/16,23:20,0.159,0.145,0.227,0.220,0.227,0.122,0.077,southeast,0.8,No
2021/09/16,23:30,0.159,0.144,0.228,0.221,0.228,0.123,0.078,southeast,0.9,No
2021/09/16,23:40,0.160,0.144,0.228,0.219,0.226,0.122,0.078,south-southeast,0.6,No
2021/09/16,23:50,0.159,0.144,0.228,0.221,0.229,0.123,0.078,south,1.0,No
